User: anonymous   Login
Location: Vancouver
(49.2500°N, 123.1330°W)
Time: 14:39:31
(UTC-07:00)
Language:

H-2A R/B - Orbit

View from above orbital plane
View from above orbital plane
View from above satellite
View from above satellite

Ground track
Ground track

The orbit data is extracted from the following two-line orbital elements,

1 27601U 02056E   17086.78847486 +.00000078 +00000-0 +43756-4 0  9997
2 27601 098.3840 157.3692 0072423 175.9056 293.5050 14.31770429746160
Epoch (UTC): 27 March 2017 18:55:24
Eccentricity: 0.0072423
inclination: 98.3840°
perigee height: 734 km
apogee height: 838 km
right ascension of ascending node: 157.3692°
argument of perigee: 175.9056°
revolutions per day: 14.31770429
mean anomaly at epoch: 293.5050°
orbit number at epoch: 74616

The dashed part of the orbit path shows where the satellite is in the earth's shadow,  

DLR